Location: Unnamed
(33.0780°N, 97.0417°W)
Time: 18:32:54
(UTC-05:00)

ISS - Visible Passes

Search period start: 03 October 2023 00:00
Search period end: 13 October 2023 00:00
Orbit: 414 x 421 km, 51.6° (Epoch: 03 October)

Date Brightness Start Highest point End Pass type
(mag) Time Alt. Az. Time Alt. Az. Time Alt. Az.
03 Oct -3.4 20:06:01 10° NW 20:09:16 48° NE 20:10:50 25° ESE visible
04 Oct -1.7 20:55:01 10° WNW 20:57:40 22° SW 20:58:12 21° SW visible
05 Oct -2.7 20:06:23 10° WNW 20:09:34 43° SW 20:12:46 10° SSE visible
07 Oct -0.7 20:08:01 10° W 20:09:31 13° SW 20:11:00 10° SSW visible
